Regional Weather Roundup
Issued by NWS

Home | Current Version | Previous Version | Text Only | Print | Product List | Glossary Off
Versions: 1 2 3 4 5 6 7 8 9 10 11 12 13 14 15 16 17 18 19 20 21 22 23 24 25 26 27 28 29 30 31 32 33 34 35 36 37 38 39 40 41 42 43 44 45 46 47 48 49 50

000
ASUS43 KIND 271009
RWRIN

WEATHER ROUNDUP FOR INDIANA
NATIONAL WEATHER SERVICE INDIANAPOLIS IN
600 AM EDT SUN MAY 27 2018

NOTE: "FAIR" INDICATES FEW OR NO CLOUDS BELOW 12,000 FEET WITH NO
SIGNIFICANT WEATHER AND/OR OBSTRUCTIONS TO VISIBILITY.

* - STATION DOES NOT REPORT WEATHER SUCH AS PRECIPITATION OR FOG.

+ - STATION NOT QUALITY CONTROLLED BY THE NATIONAL WEATHER SERVICE.
    USE DATA WITH CAUTION...ESPECIALLY DEWPOINT AND RELATIVE
    HUMIDITY OBSERVATIONS.

INZ001>003-010>013-019-020-271100-
NORTHWEST INDIANA

CITY           SKY/WX    TMP DP  RH WIND       PRES   REMARKS
GARY /AIRPORT/ CLEAR     66  64  94 CALM      29.84R
KNOX *+        FAIR      63  61  94 E3        29.84R
LA PORTE +     FAIR      64  62  94 CALM      29.86R
MICHIGAN CITY+ FAIR      63  61  94 CALM      29.84R
MONTICELLO +   FAIR      64  63  95 S3        29.85R
RENSSELAER +   FAIR      68  59  73 CALM      29.86R

$$

LMZ046-743>745-271100-
SOUTHERN LAKE MICHIGAN

STATION/POSITION TIME  TEMP    WIND        PRES    WAVE
                       AIR SEA DIR/SP/G            HT
                 (UTC) (F)     (DEG/KT/KT) (MB)    (FT)
BURNS HARBOR     0940   76      CALM  /  5 1010.8R
MICHIGAN CITY    0940   74     160/  8/  9   N/A
5NW MICH CITY    1000   67 63  180/  2/  2   N/A     0

$$

INZ004-005-014>016-021>024-271100-
NORTH CENTRAL INDIANA

CITY           SKY/WX    TMP DP  RH WIND       PRES   REMARKS
GOSHEN         FAIR      62  61  96 CALM      29.86R FOG
LOGANSPORT +   FAIR      63  63 100 CALM      29.86S
PERU/GRISSOM   FAIR      64  64 100 SW3       29.85R
ROCHESTER +    FAIR      64  63  94 CALM      29.85S
SOUTH BEND     FAIR      65  60  84 CALM      29.85S
WARSAW +       FAIR      61  61 100 CALM      29.86R

$$

INZ006>009-017-018-025>027-271100-
NORTHEAST INDIANA

CITY           SKY/WX    TMP DP  RH WIND       PRES   REMARKS
ANGOLA *+      FOG       63  63 100 CALM      29.86R VSB<1/4
AUBURN +       FOG       61  61 100 CALM      29.86R VSB 1
FORT WAYNE     FAIR      66  64  93 SW5       29.86R
HUNTINGTON +   FAIR      62  61  96 CALM      29.85R
KENDALLVILLE +   N/A     61  61 100 CALM      29.87R FOG

$$

INZ028-029-035-036-043>045-051>053-271100-
WEST CENTRAL INDIANA

CITY           SKY/WX    TMP DP  RH WIND       PRES   REMARKS
CRAWFORDSVL +  FAIR      64  64 100 CALM      29.87S
GREENCASTLE +  FAIR      64  63  94 CALM      29.88S
LAFAYETTE      FOG       64  64 100 CALM      29.85R VSB 1
TERRE HAUTE    FAIR      68  66  93 S5        29.86S

$$

INZ030>032-037>040-046>048-054>057-064-065-271100-
CENTRAL INDIANA

CITY           SKY/WX    TMP DP  RH WIND       PRES   REMARKS
ANDERSON       FAIR      68  64  86 CALM      29.87S
FISHERS *+     FAIR     N/A N/A N/A CALM      29.87S
FRANKFORT +    FAIR      68  65  93 CALM      29.88R
GREENWOOD *+   FAIR      68  66  93 CALM      29.88R
INDIANAPOLIS   FAIR      68  66  93 SW6       29.86S
-EAGLE CREEK   FAIR      71  66  84 VRB3      29.86R
KOKOMO +       FAIR      66  63  90 S6        29.87R
MARION +       FAIR      67  64  90 CALM      29.87R
MT COMFORT *+  FAIR      66  66 100 S7        29.88R
SHELBYVILLE    FAIR      68  63  84 S5        29.87R
ZIONSVILLE +   FAIR      66  66  99 SW3       29.88R

$$

INZ033-034-041-042-049-050-058-059-271100-
EAST CENTRAL INDIANA

CITY           SKY/WX    TMP DP  RH WIND       PRES   REMARKS
MUNCIE         FAIR      71  64  78 SW7       29.86S
RICHMOND +     FAIR      64  64 100 SW3       29.90R

$$

INZ060-061-067>069-081>083-085>088-271100-
SOUTHWEST INDIANA

CITY           SKY/WX    TMP DP  RH WIND       PRES   REMARKS
EVANSVILLE     FAIR      71  71 100 SW3       29.87S
HUNTINGBURG +  MOCLDY    71  70  96 S5        29.88S
WASHINGTON +   HVY RAIN  71  69  94 S7        29.87S

$$

INZ062-063-066-070>080-084-089>092-271100-
SOUTH CENTRAL AND SOUTHEAST INDIANA

CITY           SKY/WX    TMP DP  RH WIND       PRES   REMARKS
BATESVILLE +   CLOUDY    66  66 100 CALM      29.89R
BEDFORD +      FAIR      68  64  88 CALM      29.84F
BLOOMINGTON    FAIR      70  68  93 CALM      29.88S
FRENCH LICK *+ FAIR      70 N/A N/A CALM      29.90R
MADISON *+     FAIR      66  64  94 CALM      29.92R
NORTH VERNON + MOCLDY    64  63  94 SW3       29.88R
SEYMOUR +      FAIR      68  66  94 CALM      29.88S

$$




USA.gov is the U.S. government's official web portal to all federal, state and local government web resources and services.